K0HYD Weather Reports


Display with metric or nautical units.
time (UTC)temp
F
wind
direction
speed
MPH
gust
MPH
rain 1hr
in
rain 24hr
in
rain mn
in
humidity
%
barometer
mb
20260902065043 80 133 0.0 1.0 0.00 0.00 0.00 54 1011.4
20260902063542 80 164 0.0 1.0 0.00 0.00 0.00 53 1011.4
20260902060541 81 155 0.0 1.0 0.00 0.00 0.00 51 1011.3
20260902055040 82 155 0.0 3.0 0.00 0.00 0.00 50 1011.3
20260902050537 82 150 0.0 1.0 0.00 0.00 0.00 48 1011.4
20260902043535 83 164 0.0 1.0 0.00 0.00 0.00 47 1011.4
20260902042034 84 167 0.0 2.0 0.00 0.00 0.00 46 1011.2
20260902040533 84 173 3.0 6.0 0.00 0.00 0.00 45 1011.3
20260902035032 85 155 0.0 5.0 0.00 0.00 0.00 44 1011.3
20260902033531 86 138 0.0 4.0 0.00 0.00 0.00 43 1011.3
20260902032030 86 158 0.0 1.0 0.00 0.00 0.00 43 1011.2
20260902030529 86 128 2.0 2.0 0.00 0.00 0.00 42 1011.0
20260902025028 86 170 0.0 1.0 0.00 0.00 0.00 42 1010.9
20260902023527 87 143 0.0 3.0 0.00 0.00 0.00 41 1010.7
20260902022026 88 123 0.0 3.0 0.00 0.00 0.00 40 1010.4
20260902020526 89 132 0.0 6.0 0.00 0.00 0.00 39 1010.2
20260902015025 90 136 0.0 6.0 0.00 0.00 0.00 38 1010.1
20260902013523 90 194 0.0 5.0 0.00 0.00 0.00 37 1009.9
20260902012023 91 149 3.0 5.0 0.00 0.00 0.00 36 1009.9
20260902005020 93 115 0.0 6.0 0.00 0.00 0.00 32 1009.7
20260902003520 94 125 0.0 4.0 0.00 0.00 0.00 32 1009.7
20260902002019 95 160 0.0 6.0 0.00 0.00 0.00 31 1009.8
20260902000518 96 155 5.0 6.0 0.00 0.00 0.00 30 1009.8
20260901235017 97 139 7.0 12.0 0.00 0.00 0.00 30 1009.8
20260901233516 98 117 0.0 8.0 0.00 0.00 0.00 30 1009.8
20260901232015 99 146 0.0 6.0 0.00 0.00 0.00 29 1009.8
20260901230514 100 215 0.0 6.0 0.00 0.00 0.00 29 1009.9
20260901225013 99 176 0.0 7.0 0.00 0.00 0.00 28 1009.8
20260901223512 99 197 0.0 7.0 0.00 0.00 0.00 29 1009.9
20260901222011 100 193 0.0 6.0 0.00 0.00 0.00 28 1009.9
20260901220510 101 128 0.0 7.0 0.00 0.00 0.00 28 1009.9
20260901215009 101 158 0.0 8.0 0.00 0.00 0.00 29 1009.9
20260901213508 102 200 0.0 6.0 0.00 0.00 0.00 28 1010.0
20260901212007 101 227 0.0 17.0 0.00 0.00 0.00 27 1010.3
20260901210506 101 197 0.0 11.0 0.00 0.00 0.00 28 1010.4
20260901205005 100 235 0.0 6.0 0.00 0.00 0.00 28 1010.7
20260901203504 101 143 0.0 12.0 0.00 0.00 0.00 28 1010.9
20260901202003 101 229 0.0 6.0 0.00 0.00 0.00 28 1011.1
20260901200502 101 231 0.0 8.0 0.00 0.00 0.00 29 1011.3
20260901195001 101 205 0.0 1.0 0.00 0.00 0.00 29 1011.5
20260901193500 101 261 0.0 7.0 0.00 0.00 0.00 30 1011.7
20260901191959 100 194 0.0 6.0 0.00 0.00 0.00 31 1011.7
20260901184958 100 136 2.0 6.0 0.00 0.00 0.00 31 1012.1
20260901183456 99 232 7.0 7.0 0.00 0.00 0.00 31 1012.3
20260901180455 100 235 0.0 7.0 0.00 0.00 0.00 31 1012.7
20260901174953 99 107 3.0 13.0 0.00 0.00 0.00 34 1012.8
20260901173453 98 145 5.0 6.0 0.00 0.00 0.00 34 1012.9
20260901171952 97 131 4.0 6.0 0.00 0.00 0.00 36 1013.1
20260901170451 96 164 0.0 10.0 0.00 0.00 0.00 37 1013.1
20260901164950 96 210 0.0 7.0 0.00 0.00 0.00 37 1013.3
20260901163449 95 131 7.0 8.0 0.00 0.00 0.00 38 1013.4
20260901160447 93 162 6.0 6.0 0.00 0.00 0.00 41 1013.4
20260901154946 92 129 4.0 6.0 0.00 0.00 0.00 42 1013.4
20260901153445 91 176 0.0 6.0 0.00 0.00 0.00 44 1013.5
20260901151944 90 196 0.0 4.0 0.00 0.00 0.00 45 1013.5
20260901150443 88 140 1.0 7.0 0.00 0.00 0.00 48 1013.5
20260901144942 86 183 0.0 6.0 0.00 0.00 0.00 50 1013.7
20260901143441 84 215 0.0 4.0 0.00 0.00 0.00 53 1013.8
20260901141940 83 146 0.0 5.0 0.00 0.00 0.00 54 1013.7
20260901134938 79 200 0.0 5.0 0.00 0.00 0.00 58 1014.1
20260901133437 78 211 0.0 5.0 0.00 0.00 0.00 59 1014.0
20260901131936 76 169 0.0 4.0 0.00 0.00 0.00 62 1014.0
20260901130435 74 136 0.0 2.0 0.00 0.00 0.00 64 1013.9
20260901124935 73 160 0.0 1.0 0.00 0.00 0.00 65 1013.8
20260901123433 72 163 0.0 1.0 0.00 0.00 0.00 66 1013.7
20260901121932 72 163 0.0 0.0 0.00 0.00 0.00 67 1013.6
20260901114930 71 136 0.0 0.0 0.00 0.00 0.00 68 1013.2
20260901113429 70 231 0.0 0.0 0.00 0.00 0.00 70 1013.2
20260901111929 70 164 0.0 0.0 0.00 0.00 0.00 72 1013.3
20260901110428 70 218 0.0 0.0 0.00 0.00 0.00 70 1013.3
20260901103426 69 158 0.0 0.0 0.00 0.00 0.00 71 1013.2
20260901100424 71 158 0.0 0.0 0.00 0.00 0.00 69 1013.0
20260901093422 72 158 0.0 0.0 0.00 0.00 0.00 67 1012.7
20260901091921 73 158 0.0 0.0 0.00 0.00 0.00 64 1012.6
20260901090420 74 181 0.0 0.0 0.00 0.00 0.00 62 1012.4
20260901084919 74 180 0.0 0.0 0.00 0.00 0.00 61 1012.3
20260901083418 75 160 0.0 0.0 0.00 0.00 0.00 60 1012.2
20260901081917 76 143 0.0 0.0 0.00 0.00 0.00 58 1012.0
20260901080416 76 200 0.0 0.0 0.00 0.00 0.00 58 1012.0
20260901073414 78 225 0.0 1.0 0.00 0.00 0.00 55 1012.1
20260901071913 79 146 0.0 1.0 0.00 0.00 0.00 53 1012.0
20260901070412 80 163 0.0 1.0 0.00 0.00 0.00 52 1012.0